contact:dominique.lefevre@mio.osupytheas.fr, maurice.libes@osupytheas.fr, didier.mallarino@osupytheas.fr
Project:EMSO http://www.emso-fr.org/EMSO-France
Depth: 2436.0 m
Title:EMSO Ligure Ouest : Data MII capteur MICROCAT
DateTime_Computer,Latitude,Longitude,Temperature,Conductivity,Pressure,DateTime_Instrument
DateTime_Computer,Latitude,Longitude,degC,S m-1,dbar,DateTime_Instrument
2020-08-12T00:00:02Z,42.805,6.029,13.2971,4.59975,2470.18,2020-8-12T02:00:51Z
2020-08-12T00:03:05Z,42.805,6.029,13.2967,4.59976,2470.194,2020-8-12T02:03:54Z
2020-08-12T00:06:08Z,42.805,6.029,13.2974,4.59975,2470.203,2020-8-12T02:06:57Z
2020-08-12T00:09:11Z,42.805,6.029,13.2972,4.59978,2470.143,2020-8-12T02:10:00Z
2020-08-12T00:12:14Z,42.805,6.029,13.2974,4.59975,2470.194,2020-8-12T02:13:03Z
2020-08-12T00:15:18Z,42.805,6.029,13.2968,4.59974,2470.18,2020-8-12T02:16:07Z
2020-08-12T00:18:21Z,42.805,6.029,13.2970,4.59976,2470.189,2020-8-12T02:19:10Z
2020-08-12T00:21:24Z,42.805,6.029,13.2974,4.59977,2470.18,2020-8-12T02:22:13Z
2020-08-12T00:24:27Z,42.805,6.029,13.2968,4.59975,2470.203,2020-8-12T02:25:16Z
2020-08-12T00:27:31Z,42.805,6.029,13.2970,4.59978,2470.18,2020-8-12T02:28:20Z
2020-08-12T00:30:34Z,42.805,6.029,13.2974,4.59976,2470.18,2020-8-12T02:31:23Z
2020-08-12T00:33:37Z,42.805,6.029,13.2970,4.59974,2470.18,2020-8-12T02:34:26Z
2020-08-12T00:36:40Z,42.805,6.029,13.2972,4.59975,2470.18,2020-8-12T02:37:29Z
2020-08-12T00:39:43Z,42.805,6.029,13.2968,4.59975,2470.18,2020-8-12T02:40:32Z
2020-08-12T00:42:47Z,42.805,6.029,13.2971,4.59974,2470.18,2020-8-12T02:43:36Z
2020-08-12T00:45:50Z,42.805,6.029,13.2968,4.59974,2470.156,2020-8-12T02:46:39Z
2020-08-12T00:48:53Z,42.805,6.029,13.2966,4.59976,2470.217,2020-8-12T02:49:42Z
2020-08-12T00:51:57Z,42.805,6.029,13.2973,4.59976,2470.217,2020-8-12T02:52:46Z
2020-08-12T00:55:00Z,42.805,6.029,13.2970,4.59974,2470.227,2020-8-12T02:55:49Z
2020-08-12T00:58:03Z,42.805,6.029,13.2968,4.59975,2470.203,2020-8-12T02:58:52Z
2020-08-12T01:01:06Z,42.805,6.029,13.2974,4.59975,2470.189,2020-8-12T03:01:55Z
2020-08-12T01:04:10Z,42.805,6.029,13.2970,4.59975,2470.189,2020-8-12T03:04:59Z
2020-08-12T01:07:13Z,42.805,6.029,13.2968,4.59976,2470.203,2020-8-12T03:08:02Z
2020-08-12T01:10:16Z,42.805,6.029,13.2972,4.59975,2470.227,2020-8-12T03:11:05Z
2020-08-12T01:13:19Z,42.805,6.029,13.2972,4.59974,2470.217,2020-8-12T03:14:08Z
2020-08-12T01:16:23Z,42.805,6.029,13.2969,4.59974,2470.227,2020-8-12T03:17:12Z
2020-08-12T01:19:26Z,42.805,6.029,13.2971,4.59974,2470.203,2020-8-12T03:20:15Z
2020-08-12T01:22:29Z,42.805,6.029,13.2974,4.59974,2470.203,2020-8-12T03:23:18Z
2020-08-12T01:25:33Z,42.805,6.029,13.2971,4.59976,2470.203,2020-8-12T03:26:22Z
2020-08-12T01:28:36Z,42.805,6.029,13.2972,4.59975,2470.18,2020-8-12T03:29:25Z
2020-08-12T01:31:39Z,42.805,6.029,13.2972,4.59974,2470.227,2020-8-12T03:32:28Z
2020-08-12T01:34:43Z,42.805,6.029,13.2973,4.59975,2470.18,2020-8-12T03:35:32Z
2020-08-12T01:37:46Z,42.805,6.029,13.2971,4.59974,2470.227,2020-8-12T03:38:35Z
2020-08-12T01:40:49Z,42.805,6.029,13.2970,4.59976,2470.24,2020-8-12T03:41:38Z
2020-08-12T01:43:52Z,42.805,6.029,13.2972,4.59975,2470.194,2020-8-12T03:44:41Z
2020-08-12T01:46:56Z,42.805,6.029,13.2971,4.59975,2470.217,2020-8-12T03:47:45Z
2020-08-12T01:49:59Z,42.805,6.029,13.2969,4.59975,2470.171,2020-8-12T03:50:48Z
2020-08-12T01:53:02Z,42.805,6.029,13.2971,4.59975,2470.217,2020-8-12T03:53:51Z
2020-08-12T01:56:06Z,42.805,6.029,13.2972,4.59976,2470.217,2020-8-12T03:56:54Z
2020-08-12T01:59:09Z,42.805,6.029,13.2970,4.59973,2470.18,2020-8-12T03:59:58Z
2020-08-12T02:02:12Z,42.805,6.029,13.2971,4.59974,2470.18,2020-8-12T04:03:01Z
2020-08-12T02:05:15Z,42.805,6.029,13.2967,4.59976,2470.171,2020-8-12T04:06:04Z
2020-08-12T02:08:19Z,42.805,6.029,13.2971,4.59976,2470.194,2020-8-12T04:09:08Z
2020-08-12T02:11:22Z,42.805,6.029,13.2974,4.59976,2470.217,2020-8-12T04:12:11Z
2020-08-12T02:14:25Z,42.805,6.029,13.2969,4.59979,2470.217,2020-8-12T04:15:14Z
2020-08-12T02:17:28Z,42.805,6.029,13.2969,4.59975,2470.217,2020-8-12T04:18:17Z
2020-08-12T02:20:32Z,42.805,6.029,13.2971,4.59973,2470.18,2020-8-12T04:21:21Z
2020-08-12T02:23:35Z,42.805,6.029,13.2971,4.59974,2470.189,2020-8-12T04:24:24Z
2020-08-12T02:26:38Z,42.805,6.029,13.2969,4.59975,2470.203,2020-8-12T04:27:27Z
2020-08-12T02:29:41Z,42.805,6.029,13.2969,4.59975,2470.194,2020-8-12T04:30:30Z
2020-08-12T02:32:45Z,42.805,6.029,13.2971,4.59975,2470.18,2020-8-12T04:33:34Z
2020-08-12T02:35:48Z,42.805,6.029,13.2973,4.59976,2470.203,2020-8-12T04:36:37Z
2020-08-12T02:38:51Z,42.805,6.029,13.2971,4.59976,2470.194,2020-8-12T04:39:40Z
2020-08-12T02:41:54Z,42.805,6.029,13.2971,4.59974,2470.227,2020-8-12T04:42:43Z
2020-08-12T02:44:58Z,42.805,6.029,13.2968,4.59975,2470.203,2020-8-12T04:45:46Z
2020-08-12T02:48:01Z,42.805,6.029,13.2972,4.59974,2470.18,2020-8-12T04:48:50Z
2020-08-12T02:51:04Z,42.805,6.029,13.2973,4.59974,2470.203,2020-8-12T04:51:53Z
2020-08-12T02:54:08Z,42.805,6.029,13.2972,4.59976,2470.203,2020-8-12T04:54:56Z
2020-08-12T02:57:11Z,42.805,6.029,13.2968,4.59975,2470.18,2020-8-12T04:58:00Z
2020-08-12T03:00:14Z,42.805,6.029,13.2971,4.59975,2470.133,2020-8-12T05:01:03Z
2020-08-12T03:03:18Z,42.805,6.029,13.2968,4.59975,2470.203,2020-8-12T05:04:07Z
2020-08-12T03:06:21Z,42.805,6.029,13.2972,4.59976,2470.203,2020-8-12T05:07:10Z
2020-08-12T03:09:24Z,42.805,6.029,13.2968,4.59973,2470.156,2020-8-12T05:10:13Z
2020-08-12T03:12:27Z,42.805,6.029,13.2974,4.59974,2470.203,2020-8-12T05:13:16Z
2020-08-12T03:15:31Z,42.805,6.029,13.2971,4.59974,2470.18,2020-8-12T05:16:20Z
2020-08-12T03:18:34Z,42.805,6.029,13.2969,4.59975,2470.171,2020-8-12T05:19:23Z
2020-08-12T03:21:38Z,42.805,6.029,13.2971,4.59976,2470.156,2020-8-12T05:22:27Z
2020-08-12T03:24:41Z,42.805,6.029,13.2968,4.59974,2470.18,2020-8-12T05:25:30Z
2020-08-12T03:27:44Z,42.805,6.029,13.2974,4.59973,2470.194,2020-8-12T05:28:33Z
2020-08-12T03:30:47Z,42.805,6.029,13.2971,4.59978,2470.203,2020-8-12T05:31:36Z
2020-08-12T03:33:51Z,42.805,6.029,13.2971,4.59975,2470.156,2020-8-12T05:34:40Z
2020-08-12T03:36:54Z,42.805,6.029,13.2971,4.59975,2470.18,2020-8-12T05:37:43Z
2020-08-12T03:39:57Z,42.805,6.029,13.2971,4.59975,2470.156,2020-8-12T05:40:46Z
2020-08-12T03:43:00Z,42.805,6.029,13.2969,4.59976,2470.24,2020-8-12T05:43:49Z
2020-08-12T03:46:04Z,42.805,6.029,13.2976,4.59977,2470.133,2020-8-12T05:46:53Z
2020-08-12T03:49:07Z,42.805,6.029,13.2968,4.59975,2470.18,2020-8-12T05:49:56Z
2020-08-12T03:52:10Z,42.805,6.029,13.2973,4.59973,2470.203,2020-8-12T05:52:59Z
2020-08-12T03:55:13Z,42.805,6.029,13.2972,4.59975,2470.133,2020-8-12T05:56:02Z
2020-08-12T03:58:17Z,42.805,6.029,13.2970,4.59973,2470.194,2020-8-12T05:59:06Z
2020-08-12T04:01:20Z,42.805,6.029,13.2968,4.59974,2470.171,2020-8-12T06:02:09Z
2020-08-12T04:04:23Z,42.805,6.029,13.2971,4.59976,2470.171,2020-8-12T06:05:12Z
2020-08-12T04:07:26Z,42.805,6.029,13.2971,4.59974,2470.194,2020-8-12T06:08:15Z
2020-08-12T04:10:30Z,42.805,6.029,13.2972,4.59973,2470.194,2020-8-12T06:11:19Z
2020-08-12T04:13:33Z,42.805,6.029,13.2971,4.59975,2470.194,2020-8-12T06:14:22Z
2020-08-12T04:16:36Z,42.805,6.029,13.2968,4.59974,2470.147,2020-8-12T06:17:25Z
2020-08-12T04:19:39Z,42.805,6.029,13.2969,4.59973,2470.171,2020-8-12T06:20:28Z
2020-08-12T04:22:42Z,42.805,6.029,13.2970,4.59975,2470.171,2020-8-12T06:23:31Z
2020-08-12T04:25:46Z,42.805,6.029,13.2968,4.59976,2470.156,2020-8-12T06:26:35Z
2020-08-12T04:28:49Z,42.805,6.029,13.2967,4.59974,2470.171,2020-8-12T06:29:38Z
2020-08-12T04:31:52Z,42.805,6.029,13.2968,4.59976,2470.171,2020-8-12T06:32:41Z
2020-08-12T04:34:56Z,42.805,6.029,13.2970,4.59975,2470.124,2020-8-12T06:35:45Z
2020-08-12T04:37:59Z,42.805,6.029,13.2971,4.59975,2470.147,2020-8-12T06:38:48Z
2020-08-12T04:41:02Z,42.805,6.029,13.2969,4.59973,2470.133,2020-8-12T06:41:51Z
2020-08-12T04:44:05Z,42.805,6.029,13.2971,4.59974,2470.147,2020-8-12T06:44:54Z
2020-08-12T04:47:09Z,42.805,6.029,13.2968,4.59974,2470.124,2020-8-12T06:47:58Z
2020-08-12T04:50:12Z,42.805,6.029,13.2968,4.59974,2470.171,2020-8-12T06:51:01Z
2020-08-12T04:53:15Z,42.805,6.029,13.2971,4.59976,2470.194,2020-8-12T06:54:04Z
2020-08-12T04:56:19Z,42.805,6.029,13.2974,4.59975,2470.11,2020-8-12T06:57:08Z
2020-08-12T04:59:22Z,42.805,6.029,13.2969,4.59976,2470.147,2020-8-12T07:00:11Z
2020-08-12T05:02:25Z,42.805,6.029,13.2973,4.59975,2470.133,2020-8-12T07:03:14Z
2020-08-12T05:05:28Z,42.805,6.029,13.2971,4.59974,2470.133,2020-8-12T07:06:17Z
2020-08-12T05:08:31Z,42.805,6.029,13.2972,4.59973,2470.11,2020-8-12T07:09:20Z
2020-08-12T05:11:35Z,42.805,6.029,13.2971,4.59974,2470.133,2020-8-12T07:12:24Z
2020-08-12T05:14:38Z,42.805,6.029,13.2970,4.59973,2470.156,2020-8-12T07:15:27Z
2020-08-12T05:17:41Z,42.805,6.029,13.2974,4.59974,2470.133,2020-8-12T07:18:30Z
2020-08-12T05:20:44Z,42.805,6.029,13.2974,4.59973,2470.11,2020-8-12T07:21:33Z
2020-08-12T05:23:48Z,42.805,6.029,13.2972,4.59975,2470.124,2020-8-12T07:24:36Z
2020-08-12T05:26:51Z,42.805,6.029,13.2968,4.59974,2470.156,2020-8-12T07:27:40Z
2020-08-12T05:29:54Z,42.805,6.029,13.2972,4.59975,2470.133,2020-8-12T07:30:43Z
2020-08-12T05:32:57Z,42.805,6.029,13.2971,4.59974,2470.11,2020-8-12T07:33:46Z
2020-08-12T05:36:01Z,42.805,6.029,13.2971,4.59974,2470.11,2020-8-12T07:36:50Z
2020-08-12T05:39:04Z,42.805,6.029,13.2971,4.59973,2470.11,2020-8-12T07:39:53Z
2020-08-12T05:42:07Z,42.805,6.029,13.2969,4.59975,2470.11,2020-8-12T07:42:56Z
2020-08-12T05:45:11Z,42.805,6.029,13.2973,4.59974,2470.133,2020-8-12T07:45:59Z
2020-08-12T05:48:14Z,42.805,6.029,13.2971,4.59974,2470.124,2020-8-12T07:49:03Z
2020-08-12T05:51:17Z,42.805,6.029,13.2968,4.59973,2470.147,2020-8-12T07:52:06Z
2020-08-12T05:54:20Z,42.805,6.029,13.2965,4.59974,2470.133,2020-8-12T07:55:09Z
2020-08-12T05:57:23Z,42.805,6.029,13.2970,4.59973,2470.11,2020-8-12T07:58:12Z
2020-08-12T06:00:27Z,42.805,6.029,13.2972,4.59973,2470.11,2020-8-12T08:01:16Z
2020-08-12T06:03:30Z,42.805,6.029,13.2967,4.59973,2470.11,2020-8-12T08:04:19Z
2020-08-12T06:06:33Z,42.805,6.029,13.2969,4.59974,2470.133,2020-8-12T08:07:22Z
2020-08-12T06:09:36Z,42.805,6.029,13.2968,4.59973,2470.133,2020-8-12T08:10:25Z
2020-08-12T06:12:40Z,42.805,6.029,13.2969,4.59974,2470.1,2020-8-12T08:13:29Z
2020-08-12T06:15:43Z,42.805,6.029,13.2967,4.59973,2470.147,2020-8-12T08:16:32Z
2020-08-12T06:18:46Z,42.805,6.029,13.2971,4.59973,2470.11,2020-8-12T08:19:35Z
2020-08-12T06:21:49Z,42.805,6.029,13.2967,4.59973,2470.11,2020-8-12T08:22:38Z
2020-08-12T06:24:53Z,42.805,6.029,13.2974,4.59974,2470.087,2020-8-12T08:25:42Z
2020-08-12T06:27:56Z,42.805,6.029,13.2973,4.59974,2470.124,2020-8-12T08:28:45Z
2020-08-12T06:30:59Z,42.805,6.029,13.2971,4.59973,2470.11,2020-8-12T08:31:48Z
2020-08-12T06:34:03Z,42.805,6.029,13.2969,4.59973,2470.087,2020-8-12T08:34:52Z
2020-08-12T06:37:06Z,42.805,6.029,13.2972,4.59973,2470.1,2020-8-12T08:37:55Z
2020-08-12T06:40:09Z,42.805,6.029,13.2971,4.59973,2470.11,2020-8-12T08:40:58Z
2020-08-12T06:43:12Z,42.805,6.029,13.2971,4.59973,2470.124,2020-8-12T08:44:01Z
2020-08-12T06:46:15Z,42.805,6.029,13.2968,4.59973,2470.133,2020-8-12T08:47:04Z
2020-08-12T06:49:19Z,42.805,6.029,13.2971,4.59974,2470.11,2020-8-12T08:50:08Z
2020-08-12T06:52:22Z,42.805,6.029,13.2966,4.59974,2470.133,2020-8-12T08:53:11Z
2020-08-12T06:55:26Z,42.805,6.029,13.2967,4.59974,2470.133,2020-8-12T08:56:15Z
2020-08-12T06:58:29Z,42.805,6.029,13.2973,4.59973,2470.087,2020-8-12T08:59:18Z
2020-08-12T07:01:32Z,42.805,6.029,13.2972,4.59974,2470.124,2020-8-12T09:02:21Z
2020-08-12T07:04:35Z,42.805,6.029,13.2971,4.59975,2470.11,2020-8-12T09:05:24Z
2020-08-12T07:07:39Z,42.805,6.029,13.2973,4.59974,2470.147,2020-8-12T09:08:28Z
2020-08-12T07:10:42Z,42.805,6.029,13.2971,4.59973,2470.087,2020-8-12T09:11:31Z
2020-08-12T07:13:45Z,42.805,6.029,13.2973,4.59973,2470.124,2020-8-12T09:14:34Z
2020-08-12T07:16:49Z,42.805,6.029,13.2968,4.59975,2470.11,2020-8-12T09:17:38Z
2020-08-12T07:19:52Z,42.805,6.029,13.2971,4.59975,2470.11,2020-8-12T09:20:41Z
2020-08-12T07:22:55Z,42.805,6.029,13.2973,4.59973,2470.133,2020-8-12T09:23:44Z
2020-08-12T07:25:59Z,42.805,6.029,13.2970,4.59975,2470.087,2020-8-12T09:26:47Z
2020-08-12T07:29:02Z,42.805,6.029,13.2968,4.59974,2470.1,2020-8-12T09:29:51Z
2020-08-12T07:32:05Z,42.805,6.029,13.2968,4.59974,2470.124,2020-8-12T09:32:54Z
2020-08-12T07:35:08Z,42.805,6.029,13.2974,4.59974,2470.11,2020-8-12T09:35:57Z
2020-08-12T07:38:12Z,42.805,6.029,13.2971,4.59974,2470.1,2020-8-12T09:39:01Z
2020-08-12T07:41:15Z,42.805,6.029,13.2974,4.59973,2470.073,2020-8-12T09:42:04Z
2020-08-12T07:44:18Z,42.805,6.029,13.2973,4.59973,2470.124,2020-8-12T09:45:07Z
2020-08-12T07:47:22Z,42.805,6.029,13.2967,4.59974,2470.147,2020-8-12T09:48:10Z
2020-08-12T07:50:25Z,42.805,6.029,13.2971,4.59973,2470.1,2020-8-12T09:51:14Z
2020-08-12T07:53:28Z,42.805,6.029,13.2968,4.59973,2470.1,2020-8-12T09:54:17Z
2020-08-12T07:56:31Z,42.805,6.029,13.2968,4.59974,2470.087,2020-8-12T09:57:20Z
2020-08-12T07:59:35Z,42.805,6.029,13.2971,4.59973,2470.11,2020-8-12T10:00:24Z
2020-08-12T08:02:38Z,42.805,6.029,13.2971,4.59973,2470.124,2020-8-12T10:03:27Z
2020-08-12T08:05:41Z,42.805,6.029,13.2975,4.59975,2470.147,2020-8-12T10:06:30Z
2020-08-12T08:08:44Z,42.805,6.029,13.2971,4.59973,2470.1,2020-8-12T10:09:33Z
2020-08-12T08:11:48Z,42.805,6.029,13.2971,4.59973,2470.1,2020-8-12T10:12:37Z
2020-08-12T08:14:51Z,42.805,6.029,13.2970,4.59975,2470.124,2020-8-12T10:15:40Z
2020-08-12T08:17:54Z,42.805,6.029,13.2972,4.59973,2470.11,2020-8-12T10:18:43Z
2020-08-12T08:20:57Z,42.805,6.029,13.2972,4.59973,2470.124,2020-8-12T10:21:46Z
2020-08-12T08:24:01Z,42.805,6.029,13.2973,4.59973,2470.11,2020-8-12T10:24:50Z
2020-08-12T08:27:04Z,42.805,6.029,13.2971,4.59974,2470.156,2020-8-12T10:27:53Z
2020-08-12T08:30:08Z,42.805,6.029,13.2969,4.59973,2470.133,2020-8-12T10:30:57Z
2020-08-12T08:33:11Z,42.805,6.029,13.2971,4.59974,2470.133,2020-8-12T10:34:00Z
2020-08-12T08:36:14Z,42.805,6.029,13.2969,4.59974,2470.11,2020-8-12T10:37:03Z
2020-08-12T08:39:17Z,42.805,6.029,13.2974,4.59974,2470.11,2020-8-12T10:40:06Z
2020-08-12T08:42:20Z,42.805,6.029,13.2970,4.59975,2470.133,2020-8-12T10:43:09Z
2020-08-12T08:45:24Z,42.805,6.029,13.2971,4.59974,2470.11,2020-8-12T10:46:13Z
2020-08-12T08:48:27Z,42.805,6.029,13.2971,4.59973,2470.133,2020-8-12T10:49:16Z
2020-08-12T08:51:30Z,42.805,6.029,13.2968,4.59973,2470.124,2020-8-12T10:52:19Z
2020-08-12T08:54:34Z,42.805,6.029,13.2967,4.59973,2470.11,2020-8-12T10:55:22Z
2020-08-12T08:57:37Z,42.805,6.029,13.2971,4.59973,2470.147,2020-8-12T10:58:26Z
2020-08-12T09:00:40Z,42.805,6.029,13.2971,4.59973,2470.147,2020-8-12T11:01:29Z
2020-08-12T09:03:43Z,42.805,6.029,13.2974,4.59973,2470.124,2020-8-12T11:04:32Z
2020-08-12T09:06:46Z,42.805,6.029,13.2971,4.59973,2470.11,2020-8-12T11:07:35Z
2020-08-12T09:09:50Z,42.805,6.029,13.2971,4.59974,2470.156,2020-8-12T11:10:39Z
2020-08-12T09:12:53Z,42.805,6.029,13.2974,4.59973,2470.133,2020-8-12T11:13:42Z
2020-08-12T09:15:56Z,42.805,6.029,13.2972,4.59973,2470.133,2020-8-12T11:16:45Z
2020-08-12T09:19:00Z,42.805,6.029,13.2971,4.59974,2470.124,2020-8-12T11:19:49Z
2020-08-12T09:22:03Z,42.805,6.029,13.2968,4.59973,2470.133,2020-8-12T11:22:52Z
2020-08-12T09:25:06Z,42.805,6.029,13.2972,4.59974,2470.147,2020-8-12T11:25:55Z
2020-08-12T09:28:09Z,42.805,6.029,13.2969,4.59975,2470.156,2020-8-12T11:28:58Z
2020-08-12T09:31:13Z,42.805,6.029,13.2971,4.59973,2470.133,2020-8-12T11:32:02Z
2020-08-12T09:34:16Z,42.805,6.029,13.2970,4.59973,2470.133,2020-8-12T11:35:05Z
2020-08-12T09:37:19Z,42.805,6.029,13.2967,4.59973,2470.171,2020-8-12T11:38:08Z
2020-08-12T09:40:23Z,42.805,6.029,13.2971,4.59973,2470.133,2020-8-12T11:41:11Z
2020-08-12T09:43:26Z,42.805,6.029,13.2970,4.59975,2470.11,2020-8-12T11:44:15Z
2020-08-12T09:46:29Z,42.805,6.029,13.2973,4.59973,2470.11,2020-8-12T11:47:18Z
2020-08-12T09:49:33Z,42.805,6.029,13.2969,4.59974,2470.133,2020-8-12T11:50:22Z
2020-08-12T09:52:36Z,42.805,6.029,13.2971,4.59973,2470.133,2020-8-12T11:53:25Z
2020-08-12T09:55:39Z,42.805,6.029,13.2974,4.59973,2470.156,2020-8-12T11:56:28Z
2020-08-12T09:58:42Z,42.805,6.029,13.2969,4.59973,2470.124,2020-8-12T11:59:31Z
2020-08-12T10:01:45Z,42.805,6.029,13.2971,4.59973,2470.133,2020-8-12T12:02:34Z
2020-08-12T10:04:49Z,42.805,6.029,13.2972,4.59973,2470.171,2020-8-12T12:05:38Z
2020-08-12T10:07:52Z,42.805,6.029,13.2973,4.59974,2470.133,2020-8-12T12:08:41Z
2020-08-12T10:10:55Z,42.805,6.029,13.2970,4.59973,2470.147,2020-8-12T12:11:44Z
2020-08-12T10:13:59Z,42.805,6.029,13.2968,4.59973,2470.171,2020-8-12T12:14:48Z
2020-08-12T10:17:02Z,42.805,6.029,13.2971,4.59973,2470.156,2020-8-12T12:17:51Z
2020-08-12T10:20:05Z,42.805,6.029,13.2968,4.59973,2470.133,2020-8-12T12:20:54Z
2020-08-12T10:23:08Z,42.805,6.029,13.2968,4.59973,2470.171,2020-8-12T12:23:57Z
2020-08-12T10:26:12Z,42.805,6.029,13.2966,4.59973,2470.133,2020-8-12T12:27:01Z
2020-08-12T10:29:15Z,42.805,6.029,13.2972,4.59973,2470.171,2020-8-12T12:30:04Z
2020-08-12T10:32:18Z,42.805,6.029,13.2970,4.59973,2470.156,2020-8-12T12:33:07Z
2020-08-12T10:35:21Z,42.805,6.029,13.2968,4.59974,2470.194,2020-8-12T12:36:10Z
2020-08-12T10:38:25Z,42.805,6.029,13.2973,4.59973,2470.156,2020-8-12T12:39:14Z
2020-08-12T10:41:28Z,42.805,6.029,13.2973,4.59973,2470.194,2020-8-12T12:42:17Z
2020-08-12T10:44:31Z,42.805,6.029,13.2970,4.59974,2470.171,2020-8-12T12:45:20Z
2020-08-12T10:47:34Z,42.805,6.029,13.2971,4.59973,2470.171,2020-8-12T12:48:23Z
2020-08-12T10:50:38Z,42.805,6.029,13.2970,4.59973,2470.156,2020-8-12T12:51:27Z
2020-08-12T10:53:41Z,42.805,6.029,13.2969,4.59973,2470.194,2020-8-12T12:54:30Z
2020-08-12T10:56:44Z,42.805,6.029,13.2972,4.59973,2470.156,2020-8-12T12:57:33Z
2020-08-12T10:59:47Z,42.805,6.029,13.2971,4.59973,2470.133,2020-8-12T13:00:36Z
2020-08-12T11:02:51Z,42.805,6.029,13.2971,4.59976,2470.133,2020-8-12T13:03:40Z
2020-08-12T11:05:54Z,42.805,6.029,13.2970,4.59974,2470.143,2020-8-12T13:06:43Z
2020-08-12T11:08:57Z,42.805,6.029,13.2971,4.59974,2470.133,2020-8-12T13:09:46Z
2020-08-12T11:12:01Z,42.805,6.029,13.2968,4.59973,2470.18,2020-8-12T13:12:50Z
2020-08-12T11:15:04Z,42.805,6.029,13.2969,4.59973,2470.171,2020-8-12T13:15:53Z
2020-08-12T11:18:07Z,42.805,6.029,13.2973,4.59973,2470.156,2020-8-12T13:18:56Z
2020-08-12T11:21:11Z,42.805,6.029,13.2969,4.59973,2470.18,2020-8-12T13:22:00Z
2020-08-12T11:24:14Z,42.805,6.029,13.2971,4.59973,2470.156,2020-8-12T13:25:03Z
2020-08-12T11:27:17Z,42.805,6.029,13.2974,4.59973,2470.171,2020-8-12T13:28:06Z
2020-08-12T11:30:21Z,42.805,6.029,13.2974,4.59973,2470.18,2020-8-12T13:31:10Z
2020-08-12T11:33:24Z,42.805,6.029,13.2971,4.59973,2470.18,2020-8-12T13:34:13Z
2020-08-12T11:36:27Z,42.805,6.029,13.2970,4.59973,2470.156,2020-8-12T13:37:16Z
2020-08-12T11:39:30Z,42.805,6.029,13.2968,4.59973,2470.133,2020-8-12T13:40:19Z
2020-08-12T11:42:34Z,42.805,6.029,13.2973,4.59973,2470.217,2020-8-12T13:43:23Z
2020-08-12T11:45:37Z,42.805,6.029,13.2971,4.59973,2470.156,2020-8-12T13:46:26Z
2020-08-12T11:48:40Z,42.805,6.029,13.2971,4.59973,2470.171,2020-8-12T13:49:29Z
2020-08-12T11:51:44Z,42.805,6.029,13.2971,4.59974,2470.156,2020-8-12T13:52:33Z
2020-08-12T11:54:47Z,42.805,6.029,13.2969,4.59973,2470.194,2020-8-12T13:55:36Z
2020-08-12T11:57:50Z,42.805,6.029,13.2968,4.59973,2470.133,2020-8-12T13:58:39Z
2020-08-12T12:00:53Z,42.805,6.029,13.2968,4.59972,2470.194,2020-8-12T14:01:42Z
2020-08-12T12:03:57Z,42.805,6.029,13.2974,4.59973,2470.156,2020-8-12T14:04:45Z
2020-08-12T12:07:00Z,42.805,6.029,13.2975,4.59975,2470.156,2020-8-12T14:07:49Z
2020-08-12T12:10:03Z,42.805,6.029,13.2970,4.59972,2470.171,2020-8-12T14:10:52Z
2020-08-12T12:13:06Z,42.805,6.029,13.2973,4.59973,2470.18,2020-8-12T14:13:55Z
2020-08-12T12:16:10Z,42.805,6.029,13.2967,4.59973,2470.18,2020-8-12T14:16:58Z
2020-08-12T12:19:13Z,42.805,6.029,13.2970,4.59973,2470.203,2020-8-12T14:20:02Z
2020-08-12T12:22:16Z,42.805,6.029,13.2969,4.59973,2470.194,2020-8-12T14:23:05Z
2020-08-12T12:25:19Z,42.805,6.029,13.2967,4.59973,2470.156,2020-8-12T14:26:08Z
2020-08-12T12:28:23Z,42.805,6.029,13.2973,4.59973,2470.203,2020-8-12T14:29:12Z
2020-08-12T12:31:26Z,42.805,6.029,13.2974,4.59974,2470.217,2020-8-12T14:32:15Z
2020-08-12T12:34:29Z,42.805,6.029,13.2972,4.59974,2470.194,2020-8-12T14:35:18Z
2020-08-12T12:37:32Z,42.805,6.029,13.2970,4.59974,2470.194,2020-8-12T14:38:21Z
2020-08-12T12:40:36Z,42.805,6.029,13.2970,4.59975,2470.18,2020-8-12T14:41:25Z
2020-08-12T12:43:39Z,42.805,6.029,13.2970,4.59974,2470.194,2020-8-12T14:44:28Z
2020-08-12T12:46:42Z,42.805,6.029,13.2971,4.59973,2470.18,2020-8-12T14:47:31Z
2020-08-12T12:49:45Z,42.805,6.029,13.2971,4.59974,2470.203,2020-8-12T14:50:34Z
2020-08-12T12:52:49Z,42.805,6.029,13.2973,4.59974,2470.18,2020-8-12T14:53:38Z
2020-08-12T12:55:52Z,42.805,6.029,13.2969,4.59972,2470.18,2020-8-12T14:56:41Z
2020-08-12T12:58:55Z,42.805,6.029,13.2971,4.59973,2470.18,2020-8-12T14:59:44Z
2020-08-12T13:01:58Z,42.805,6.029,13.2969,4.59973,2470.171,2020-8-12T15:02:47Z
2020-08-12T13:05:02Z,42.805,6.029,13.2969,4.59973,2470.18,2020-8-12T15:05:51Z
2020-08-12T13:08:05Z,42.805,6.029,13.2969,4.59974,2470.227,2020-8-12T15:08:54Z
2020-08-12T13:11:08Z,42.805,6.029,13.2971,4.59973,2470.203,2020-8-12T15:11:57Z
2020-08-12T13:14:11Z,42.805,6.029,13.2970,4.59971,2470.156,2020-8-12T15:15:00Z
2020-08-12T13:17:15Z,42.805,6.029,13.2969,4.59974,2470.18,2020-8-12T15:18:04Z
2020-08-12T13:20:18Z,42.805,6.029,13.2971,4.59978,2470.171,2020-8-12T15:21:07Z
2020-08-12T13:23:21Z,42.805,6.029,13.2970,4.59974,2470.203,2020-8-12T15:24:10Z
2020-08-12T13:26:24Z,42.805,6.029,13.2971,4.59973,2470.203,2020-8-12T15:27:13Z
2020-08-12T13:29:28Z,42.805,6.029,13.2970,4.59973,2470.18,2020-8-12T15:30:17Z
2020-08-12T13:32:31Z,42.805,6.029,13.2969,4.59973,2470.203,2020-8-12T15:33:20Z
2020-08-12T13:35:34Z,42.805,6.029,13.2974,4.59976,2470.171,2020-8-12T15:36:23Z
2020-08-12T13:38:37Z,42.805,6.029,13.2973,4.59975,2470.217,2020-8-12T15:39:26Z
2020-08-12T13:41:41Z,42.805,6.029,13.2972,4.59973,2470.156,2020-8-12T15:42:30Z
2020-08-12T13:44:44Z,42.805,6.029,13.2967,4.59973,2470.217,2020-8-12T15:45:33Z
2020-08-12T13:47:47Z,42.805,6.029,13.2970,4.59976,2470.217,2020-8-12T15:48:36Z
2020-08-12T13:50:50Z,42.805,6.029,13.2968,4.59973,2470.18,2020-8-12T15:51:39Z
2020-08-12T13:53:53Z,42.805,6.029,13.2969,4.59973,2470.217,2020-8-12T15:54:42Z
2020-08-12T13:56:57Z,42.805,6.029,13.2971,4.59973,2470.203,2020-8-12T15:57:46Z
2020-08-12T14:00:00Z,42.805,6.029,13.2968,4.59973,2470.18,2020-8-12T16:00:49Z
2020-08-12T14:03:03Z,42.805,6.029,13.2973,4.59975,2470.217,2020-8-12T16:03:52Z
2020-08-12T14:06:06Z,42.805,6.029,13.2971,4.59973,2470.227,2020-8-12T16:06:55Z
2020-08-12T14:09:10Z,42.805,6.029,13.2974,4.59973,2470.203,2020-8-12T16:09:59Z
2020-08-12T14:12:13Z,42.805,6.029,13.2968,4.59973,2470.203,2020-8-12T16:13:02Z
2020-08-12T14:15:16Z,42.805,6.029,13.2971,4.59973,2470.18,2020-8-12T16:16:05Z
2020-08-12T14:18:20Z,42.805,6.029,13.2973,4.59975,2470.18,2020-8-12T16:19:09Z
2020-08-12T14:21:23Z,42.805,6.029,13.2973,4.59975,2470.217,2020-8-12T16:22:12Z
2020-08-12T14:24:26Z,42.805,6.029,13.2972,4.59974,2470.227,2020-8-12T16:25:15Z
2020-08-12T14:27:29Z,42.805,6.029,13.2970,4.59973,2470.171,2020-8-12T16:28:18Z
2020-08-12T14:30:33Z,42.805,6.029,13.2970,4.59974,2470.194,2020-8-12T16:31:22Z
2020-08-12T14:33:36Z,42.805,6.029,13.2965,4.59974,2470.18,2020-8-12T16:34:25Z
2020-08-12T14:36:39Z,42.805,6.029,13.2971,4.59976,2470.18,2020-8-12T16:37:28Z
2020-08-12T14:39:42Z,42.805,6.029,13.2971,4.59974,2470.18,2020-8-12T16:40:31Z
2020-08-12T14:42:46Z,42.805,6.029,13.2974,4.59973,2470.18,2020-8-12T16:43:35Z
2020-08-12T14:45:49Z,42.805,6.029,13.2974,4.59974,2470.203,2020-8-12T16:46:38Z
2020-08-12T14:48:52Z,42.805,6.029,13.2968,4.59974,2470.18,2020-8-12T16:49:41Z
2020-08-12T14:51:55Z,42.805,6.029,13.2970,4.59975,2470.194,2020-8-12T16:52:44Z
2020-08-12T14:54:59Z,42.805,6.029,13.2971,4.59978,2470.203,2020-8-12T16:55:48Z
2020-08-12T14:58:02Z,42.805,6.029,13.2968,4.59973,2470.18,2020-8-12T16:58:51Z
2020-08-12T15:01:05Z,42.805,6.029,13.2968,4.59974,2470.18,2020-8-12T17:01:54Z
2020-08-12T15:04:09Z,42.805,6.029,13.2968,4.59976,2470.217,2020-8-12T17:04:58Z
2020-08-12T15:07:12Z,42.805,6.029,13.2970,4.59973,2470.203,2020-8-12T17:08:01Z
2020-08-12T15:10:15Z,42.805,6.029,13.2968,4.59974,2470.18,2020-8-12T17:11:04Z
2020-08-12T15:13:19Z,42.805,6.029,13.2971,4.59973,2470.171,2020-8-12T17:14:08Z